[[{"header":{"parameterUnit":"m.s-1","parameterCategory":1,"la1":30.2991,"la2":30.254,"lo1":-89.0895,"lo2":-89.0444,"dy":0.0017,"dx":0.0017,"nx":28,"ny":28,"refTime":"2025-07-31T09:00:00:Z","depth":0,"parameterNumber":2,"parameterNumberName":"U-component_of_WINDS"},"data":[0,0,0,0,0,0,0,0,0,0,0,0,0,0,0,0,0,0,0,0,0,0,0,0,0,0,0,0,0,0,0,0,0,0,0,0,0,0,0,0,0,0,0,0,0,0,0,0,0,0,0,0,0,0,0,0,0,0,4.2183,4.2185,0,4.2386,4.2388,4.2391,4.2355,4.2351,4.2347,4.2344,4.2554,4.2563,4.2572,0,0,0,0,0,0,0,0,0,0,0,0,0,4.1763,4.1771,4.2182,4.2185,4.2188,4.2386,4.2388,4.2391,4.2355,4.2351,4.2346,4.2342,4.2551,4.2562,4.2573,0,0,0,0,0,0,0,0,0,0,0,0,0,4.1954,4.1774,4.2182,4.2193,4.2196,4.2385,4.2388,4.2392,4.2356,4.2351,4.2345,4.234,4.2548,4.2561,4.2574,4.2765,0,0,4.2615,4.2621,0,0,0,0,0,0,0,0,4.1943,4.1969,4.2189,4.2193,4.2197,4.2339,4.2318,4.2517,4.2357,4.2296,4.2344,4.2338,4.2487,4.2505,4.2555,4.2775,4.2784,4.2616,4.2625,4.263,4.2634,0,0,0,0,0,0,0,4.193,4.196,4.2263,4.2192,4.2197,4.2188,4.221,4.2355,4.2419,4.2301,4.2298,4.2323,4.2488,4.2543,4.256,4.2787,4.2616,4.2628,4.2636,4.2642,4.317,4.3176,0,0,0,0,0,0,4.1913,4.195,4.2256,4.2269,4.2054,4.22,4.2224,4.2299,4.2418,4.243,4.2327,4.232,4.2522,4.2544,4.2567,4.2797,4.263,4.2643,4.2651,4.3164,4.3172,4.3178,0,0,0,0,0,0,4.1904,4.1941,4.2248,4.2109,4.2147,4.2213,4.2298,4.2306,4.236,4.2438,4.2449,4.2371,4.2519,4.2548,4.2715,4.2803,4.2649,4.2661,4.3157,4.3167,4.3175,4.3258,0,0,0,0,0,0,4.1892,4.1938,4.2011,4.2111,4.2155,4.2393,4.2303,4.2314,4.2383,4.2376,4.2482,4.2494,4.2517,4.2695,4.2729,4.2819,4.2672,4.315,4.3161,4.3172,4.3247,4.3268,4.3286,0,0,0,0,0,4.1878,4.2027,4.2015,4.2052,4.2248,4.2398,4.2423,4.2446,4.239,4.2464,4.2514,4.2491,4.2789,4.2713,4.275,4.2846,4.3144,4.3158,4.3171,4.3239,4.3264,4.3286,0,0,0,0,0,0,4.1937,4.2041,4.2028,4.2214,4.2298,4.2392,4.2486,4.2473,4.2575,4.2564,4.2588,4.2613,4.2781,4.2831,4.2744,4.3035,4.2958,4.298,4.2997,4.3022,4.3041,4.3026,4.2683,0,0,0,0,0,4.1972,4.2085,4.217,4.2326,4.2368,4.242,4.2486,4.2496,4.2584,4.2619,4.2681,4.2767,4.288,4.2954,4.3062,4.3254,4.3276,4.3338,4.3358,4.3373,4.3392,4.3495,4.3523,4.3222,4.3222,4.3222,0,0,4.2045,4.2116,4.2186,4.234,4.2405,4.2522,4.245,4.2577,4.2663,4.2639,4.2799,4.2848,4.2945,4.3125,4.3207,4.3171,4.3479,4.3391,4.3403,4.3412,4.3512,4.354,4.3565,4.3232,4.323,4.3228,0,0,4.2238,4.2303,4.2439,4.2506,4.2606,4.2639,4.2672,4.2768,4.2798,4.296,4.2943,4.3047,4.3241,4.331,4.3371,4.3588,4.357,4.3623,4.3725,4.3825,4.3849,4.387,4.3945,4.3972,4.3641,4.3641,4.3641,0,4.2317,4.2491,4.2511,4.2639,4.2707,4.2689,4.2826,4.289,4.3021,4.3068,4.3025,4.3267,4.3332,4.3526,4.3579,4.363,4.3667,4.3611,4.3843,4.3865,4.3885,4.3957,4.3986,4.3647,4.3646,4.3645,4.3645,0,4.2582,4.2703,4.2801,4.2926,4.3004,4.3137,4.3177,4.3254,4.3257,4.3294,4.3458,4.3535,4.3657,4.3704,4.371,4.39,4.3874,4.3837,4.376,4.3919,4.3987,4.4015,4.3655,4.3653,4.3651,4.365,0,0,4.2819,4.2951,4.2987,4.3042,4.315,4.3244,4.3375,4.3494,4.3559,4.3649,4.3759,4.3923,4.3889,4.3958,4.397,4.4059,4.4223,4.4011,4.4014,4.4046,4.4435,4.4461,4.4493,4.4212,4.4217,4.4222,4.4427,0,4.3021,4.3251,4.3272,4.3479,4.359,4.3573,4.3687,4.3765,4.3804,4.3904,4.3946,4.4061,4.4008,4.405,4.4136,4.4185,4.4301,4.417,4.4314,4.4319,4.4288,4.4529,4.4558,4.4747,4.4454,4.4458,4.4462,0,4.3287,4.3383,4.36,4.369,4.3738,4.384,4.3949,4.4045,4.4133,4.4154,4.423,4.423,4.4365,4.4283,4.4468,4.4378,4.4438,4.447,4.4478,4.4492,4.4399,4.4548,4.4809,4.4837,4.4504,4.4501,4.4498,0,4.3436,4.362,4.3773,4.3821,4.3931,4.4002,4.4051,4.4134,4.4203,4.4299,4.4343,4.4454,4.4515,4.46,4.463,4.4568,4.4813,4.4734,4.4833,4.4833,4.4885,4.4882,4.5158,4.4926,4.4926,4.4925,4.4925,0,4.3658,4.3791,4.3841,4.3935,4.4083,4.4106,4.4252,4.4298,4.4371,4.4473,4.4466,4.4563,4.4596,4.4698,4.4723,4.4871,4.4899,4.4919,4.4924,4.4919,4.4916,4.4958,4.4945,4.4933,4.4931,4.493,4.4928,0,4.385,4.3889,4.4054,4.4143,4.4168,4.4274,4.435,4.4441,4.4476,4.4606,4.4638,4.4694,4.4813,4.4851,4.4996,4.5012,4.5185,4.5179,4.5155,4.5155,4.5252,4.5242,4.5564,4.5607,4.5348,4.535,4.5352,0,4.3989,4.409,4.419,4.4257,4.4308,4.4418,4.4487,4.4513,4.4587,4.4693,4.4771,4.4888,4.4984,4.5175,4.5229,4.5339,4.5335,4.544,4.5351,4.5343,4.5335,4.5328,4.5337,4.5457,4.5459,4.5462,4.5463,0,4.4231,4.4244,4.4344,4.4452,4.4535,4.4621,4.4704,4.4759,4.4797,4.488,4.5001,4.5075,4.5221,4.5338,4.5449,4.55,4.5488,4.5491,4.5519,4.5515,4.5496,4.5506,4.5199,4.5483,4.5481,4.548,4.5479,4.5478,4.4399,4.4488,4.4571,4.4683,4.4747,4.4824,4.4913,4.4959,4.506,4.518,4.5189,4.532,4.5403,4.5552,4.5608,4.571,4.568,4.5722,4.5732,4.5742,4.5748,4.5481,4.5731,4.573,4.573,4.5729,4.5729,0,4.4639,4.4691,4.4794,4.4909,4.4996,4.4976,4.5066,4.5141,4.5255,4.5334,4.5427,4.5565,4.5678,4.574,4.5852,4.5922,4.5919,4.5951,4.5945,4.5957,4.577,4.5733,4.5951,4.5951,4.5951,4.5951,4.5951,4.595,4.4774,4.4922,4.4945,4.5125,4.5176,4.5303,4.5356,4.5426,4.5489,4.5643,4.5736,4.5775,4.5847,4.5964,4.6066,4.6081,4.6122,4.6157,4.6169,4.5993,4.597,4.5948,4.5914,4.6166,4.6166,4.6346,4.6348,4.6349]},{"header":{"parameterUnit":"m.s-1","parameterCategory":1,"la1":30.2991,"la2":30.254,"lo1":-89.0895,"lo2":-89.0444,"dy":0.0017,"dx":0.0017,"nx":28,"ny":28,"refTime":"2025-07-31T09:00:00:Z","depth":0,"parameterNumber":3,"parameterNumberName":"V-component_of_WINDS"},"data":[0,0,0,0,0,0,0,0,0,0,0,0,0,0,0,0,0,0,0,0,0,0,0,0,0,0,0,0,0,0,0,0,0,0,0,0,0,0,0,0,0,0,0,0,0,0,0,0,0,0,0,0,0,0,0,0,0,0,0.7477,0.7478,0,0.7501,0.7501,0.7501,0.7455,0.7453,0.7452,0.745,0.7476,0.7478,0.748,0,0,0,0,0,0,0,0,0,0,0,0,0,0.7393,0.7395,0.7477,0.7478,0.7478,0.7501,0.7501,0.7501,0.7455,0.7453,0.7451,0.745,0.7475,0.7478,0.748,0,0,0,0,0,0,0,0,0,0,0,0,0,0.7425,0.7396,0.7477,0.7458,0.7456,0.7501,0.7501,0.7501,0.7456,0.7453,0.7451,0.7449,0.7474,0.7477,0.7481,0.7546,0,0,0.749,0.7492,0,0,0,0,0,0,0,0,0.7423,0.7428,0.746,0.7459,0.7457,0.7472,0.7481,0.7516,0.7456,0.7456,0.745,0.7448,0.7477,0.748,0.7489,0.7547,0.7548,0.7491,0.7492,0.7494,0.7495,0,0,0,0,0,0,0,0.7421,0.7427,0.7487,0.7461,0.7459,0.7448,0.745,0.7487,0.7479,0.7456,0.7452,0.7456,0.7476,0.7486,0.7489,0.7548,0.749,0.7493,0.7495,0.7496,0.766,0.7663,0,0,0,0,0,0,0.7421,0.7425,0.7486,0.7487,0.7434,0.7451,0.7453,0.747,0.7478,0.7477,0.7458,0.7453,0.7482,0.7486,0.749,0.7567,0.7494,0.7497,0.7498,0.7658,0.7661,0.7663,0,0,0,0,0,0,0.7419,0.7427,0.7485,0.7455,0.7462,0.7455,0.7474,0.7472,0.7482,0.748,0.7478,0.747,0.748,0.7486,0.7532,0.7567,0.7498,0.7501,0.7655,0.7659,0.7662,0.7721,0,0,0,0,0,0,0.7417,0.7427,0.7451,0.7456,0.7464,0.7527,0.7476,0.7474,0.7487,0.7482,0.7491,0.749,0.7479,0.7528,0.7535,0.757,0.7503,0.7652,0.7657,0.7661,0.7716,0.7726,0.7735,0,0,0,0,0,0.7414,0.7468,0.7453,0.746,0.7494,0.7529,0.7533,0.7518,0.749,0.7515,0.7513,0.749,0.7562,0.7533,0.7541,0.7577,0.7649,0.7655,0.7661,0.7712,0.7724,0.7735,0,0,0,0,0,0,0.7468,0.7468,0.7452,0.7508,0.7519,0.7521,0.7552,0.7532,0.7552,0.7546,0.7527,0.753,0.758,0.7583,0.7551,0.764,0.7601,0.7608,0.7637,0.7649,0.7658,0.7657,0.7506,0,0,0,0,0,0.7486,0.7514,0.7512,0.7562,0.7568,0.7559,0.7574,0.7561,0.7572,0.7576,0.7578,0.759,0.7614,0.7632,0.7654,0.7715,0.7717,0.7744,0.7754,0.7762,0.7769,0.7801,0.7814,0.7682,0.7682,0.7681,0,0,0.7525,0.7528,0.7547,0.7573,0.758,0.7609,0.7563,0.7596,0.7618,0.7581,0.7625,0.7627,0.7638,0.7692,0.7716,0.7696,0.7805,0.7769,0.7775,0.7778,0.7808,0.7821,0.7832,0.7685,0.7685,0.7684,0,0,0.7609,0.7614,0.7656,0.7664,0.7674,0.7668,0.7678,0.7682,0.7682,0.7725,0.7698,0.7724,0.7767,0.7776,0.7787,0.7873,0.7852,0.7881,0.7932,0.7964,0.7974,0.7983,0.8014,0.8026,0.7888,0.7888,0.7888,0,0.7656,0.7699,0.768,0.7715,0.7727,0.7694,0.7737,0.7745,0.7763,0.7772,0.7749,0.7803,0.7808,0.7864,0.7884,0.7894,0.7905,0.7881,0.7974,0.7983,0.7991,0.8021,0.8033,0.7892,0.7891,0.7891,0.7891,0,0.7755,0.7785,0.7818,0.7835,0.7851,0.7889,0.7877,0.7895,0.7881,0.7876,0.7921,0.7926,0.7949,0.7961,0.7948,0.8014,0.8002,0.7977,0.7937,0.8007,0.8035,0.8046,0.7897,0.7895,0.7894,0.7894,0,0,0.7877,0.7882,0.7894,0.7901,0.791,0.7933,0.7969,0.7991,0.8007,0.802,0.805,0.8087,0.8063,0.8075,0.8062,0.809,0.8159,0.8061,0.8061,0.808,0.8233,0.8252,0.8266,0.8144,0.8146,0.8148,0.8232,0,0.7961,0.8024,0.8008,0.807,0.8097,0.8065,0.8097,0.8106,0.8102,0.8125,0.8121,0.8148,0.8115,0.8121,0.8147,0.8145,0.8189,0.8138,0.8173,0.8174,0.8172,0.828,0.8301,0.838,0.8242,0.8244,0.8245,0,0.8068,0.8085,0.815,0.8153,0.8164,0.8193,0.8211,0.8233,0.8242,0.8237,0.825,0.8231,0.8267,0.8225,0.8275,0.8241,0.8253,0.8254,0.8257,0.8261,0.8215,0.8287,0.8405,0.8418,0.8262,0.8261,0.826,0,0.8151,0.8189,0.8233,0.824,0.8244,0.8265,0.8268,0.8274,0.8288,0.8304,0.8313,0.8333,0.8344,0.836,0.8348,0.8319,0.8399,0.8357,0.8397,0.8397,0.8417,0.8416,0.8539,0.8423,0.8423,0.8423,0.8423,0,0.8248,0.8289,0.827,0.8297,0.8342,0.8322,0.8367,0.8367,0.8372,0.8399,0.8372,0.8397,0.8378,0.8402,0.8392,0.8435,0.844,0.8437,0.8435,0.8441,0.8441,0.845,0.8444,0.8426,0.8425,0.8425,0.8424,0,0.8348,0.8337,0.8383,0.8383,0.8383,0.8417,0.8417,0.8442,0.8435,0.8469,0.8476,0.8467,0.8493,0.8481,0.8509,0.8502,0.8557,0.8546,0.8554,0.8552,0.8593,0.859,0.8727,0.8744,0.8616,0.8618,0.8619,0,0.8412,0.8442,0.8445,0.8461,0.8465,0.849,0.8504,0.8486,0.8501,0.8513,0.8536,0.856,0.8578,0.8622,0.8618,0.8639,0.8629,0.8676,0.8632,0.8637,0.8631,0.8629,0.8632,0.8685,0.8686,0.8688,0.8689,0,0.8525,0.8517,0.8538,0.8556,0.8573,0.8587,0.8598,0.8613,0.8595,0.8613,0.8639,0.8653,0.8681,0.8705,0.8723,0.8726,0.8705,0.8702,0.8712,0.872,0.8723,0.8722,0.8579,0.8699,0.8698,0.8697,0.8697,0.8696,0.8609,0.8635,0.8641,0.8664,0.8671,0.8682,0.8705,0.8701,0.8723,0.8743,0.8731,0.8762,0.8769,0.8791,0.8797,0.882,0.8802,0.8817,0.8821,0.8826,0.8831,0.8718,0.8824,0.8823,0.8823,0.8823,0.8822,0,0.8722,0.8723,0.8745,0.8762,0.878,0.8757,0.8768,0.8785,0.8812,0.882,0.8838,0.8868,0.8891,0.8888,0.8909,0.8928,0.8919,0.8935,0.8934,0.8935,0.8846,0.8835,0.8942,0.8942,0.8942,0.8942,0.8942,0.8942,0.8782,0.8825,0.8818,0.8863,0.8864,0.8893,0.8902,0.8912,0.8918,0.8952,0.8971,0.8968,0.8972,0.8993,0.9013,0.9011,0.902,0.904,0.9035,0.8953,0.8941,0.893,0.8919,0.9042,0.9042,0.9121,0.9122,0.9123]}]]